GEFSNGP_prec_meanprecacc_150.txt.gz
Total_Precipitation_Accumulation
0.52 0.40 0.45 0.45 0.35 0.43 0.71 0.71 0.72 0.45 0.33 0.33 0.30 0.28 0.24 0.26 0.27 0.27 0.28 0.30 0.34 0.36 0.39 0.42 0.40 0.40 0.43 0.48 0.54 0.55 0.55 0.62 0.64 0.64 0.69 0.76 0.79 0.78 0.78 0.78 0.84 0.87 0.88 0.91
0.52 0.33 0.33 0.35 0.29 0.33 0.42 0.45 0.49 0.40 0.36 0.26 0.25 0.23 0.22 0.23 0.22 0.21 0.22 0.24 0.25 0.29 0.36 0.38 0.37 0.36 0.36 0.39 0.43 0.44 0.44 0.48 0.53 0.59 0.67 0.74 0.80 0.79 0.76 0.75 0.80 0.86 0.86 0.90
0.46 0.25 0.33 0.38 0.30 0.35 0.38 0.36 0.42 0.45 0.37 0.23 0.23 0.21 0.22 0.22 0.19 0.17 0.18 0.18 0.19 0.22 0.27 0.29 0.28 0.31 0.33 0.34 0.37 0.39 0.38 0.39 0.44 0.54 0.62 0.66 0.73 0.78 0.79 0.79 0.87 0.96 0.98 0.98
0.47 0.33 0.38 0.25 0.19 0.24 0.29 0.32 0.33 0.32 0.24 0.18 0.19 0.21 0.20 0.20 0.18 0.16 0.15 0.14 0.15 0.18 0.21 0.21 0.22 0.24 0.25 0.25 0.31 0.39 0.42 0.45 0.47 0.51 0.57 0.65 0.69 0.76 0.82 0.84 0.92 1.03 1.08 1.05
0.49 0.38 0.23 0.13 0.10 0.16 0.26 0.29 0.20 0.18 0.15 0.12 0.13 0.14 0.14 0.16 0.15 0.15 0.15 0.14 0.14 0.15 0.17 0.15 0.17 0.21 0.21 0.21 0.26 0.34 0.39 0.44 0.45 0.48 0.55 0.63 0.71 0.79 0.84 0.87 0.93 1.00 0.99 0.95
0.48 0.41 0.25 0.13 0.06 0.07 0.20 0.35 0.15 0.11 0.10 0.10 0.12 0.18 0.16 0.14 0.15 0.12 0.13 0.17 0.17 0.16 0.16 0.15 0.17 0.20 0.23 0.25 0.28 0.35 0.38 0.42 0.43 0.45 0.51 0.58 0.67 0.77 0.82 0.84 0.84 0.83 0.82 0.77
0.38 0.35 0.16 0.08 0.04 0.07 0.28 0.41 0.16 0.12 0.10 0.12 0.14 0.15 0.14 0.11 0.10 0.11 0.13 0.17 0.22 0.24 0.25 0.25 0.27 0.28 0.30 0.31 0.34 0.37 0.39 0.43 0.45 0.47 0.51 0.57 0.62 0.65 0.68 0.68 0.65 0.63 0.60 0.57
0.21 0.27 0.17 0.10 0.11 0.18 0.25 0.17 0.13 0.12 0.13 0.16 0.18 0.16 0.13 0.12 0.10 0.11 0.14 0.17 0.22 0.27 0.29 0.31 0.32 0.34 0.35 0.37 0.39 0.39 0.40 0.44 0.47 0.47 0.47 0.46 0.47 0.50 0.50 0.50 0.50 0.48 0.48 0.48
0.15 0.17 0.14 0.12 0.16 0.18 0.18 0.14 0.12 0.12 0.12 0.15 0.21 0.21 0.18 0.16 0.13 0.11 0.12 0.16 0.19 0.23 0.24 0.25 0.30 0.35 0.38 0.39 0.38 0.36 0.38 0.39 0.39 0.38 0.37 0.37 0.37 0.37 0.39 0.42 0.44 0.46 0.46 0.46
0.13 0.12 0.11 0.12 0.14 0.13 0.13 0.12 0.11 0.11 0.12 0.14 0.16 0.19 0.19 0.18 0.16 0.16 0.15 0.13 0.14 0.16 0.18 0.19 0.21 0.25 0.29 0.31 0.30 0.28 0.30 0.29 0.28 0.27 0.27 0.27 0.28 0.29 0.32 0.35 0.37 0.39 0.41 0.41
0.12 0.09 0.08 0.08 0.07 0.07 0.07 0.07 0.08 0.10 0.11 0.12 0.12 0.15 0.18 0.17 0.15 0.16 0.15 0.14 0.12 0.11 0.12 0.13 0.14 0.16 0.20 0.22 0.22 0.21 0.22 0.20 0.20 0.20 0.24 0.27 0.27 0.28 0.31 0.33 0.37 0.39 0.38 0.39
0.14 0.08 0.09 0.08 0.05 0.04 0.04 0.04 0.05 0.07 0.09 0.10 0.10 0.14 0.15 0.14 0.13 0.13 0.15 0.15 0.12 0.11 0.12 0.12 0.12 0.13 0.14 0.17 0.20 0.21 0.19 0.19 0.19 0.17 0.20 0.26 0.30 0.30 0.34 0.37 0.41 0.45 0.45 0.42
0.11 0.07 0.06 0.05 0.04 0.04 0.03 0.03 0.03 0.04 0.06 0.07 0.07 0.09 0.11 0.12 0.13 0.13 0.12 0.12 0.11 0.11 0.11 0.11 0.12 0.13 0.13 0.15 0.17 0.18 0.19 0.20 0.21 0.20 0.22 0.25 0.27 0.28 0.29 0.31 0.35 0.41 0.43 0.44
0.05 0.04 0.04 0.03 0.04 0.04 0.03 0.03 0.03 0.03 0.04 0.05 0.07 0.08 0.08 0.10 0.12 0.13 0.14 0.14 0.13 0.11 0.11 0.11 0.12 0.11 0.11 0.11 0.13 0.16 0.19 0.21 0.20 0.21 0.24 0.26 0.27 0.29 0.28 0.26 0.27 0.29 0.34 0.39
0.04 0.04 0.04 0.03 0.03 0.03 0.04 0.03 0.03 0.04 0.04 0.05 0.06 0.07 0.08 0.10 0.13 0.15 0.15 0.14 0.14 0.13 0.11 0.10 0.11 0.11 0.10 0.10 0.11 0.13 0.17 0.18 0.18 0.20 0.22 0.25 0.26 0.29 0.28 0.26 0.25 0.24 0.25 0.31
0.05 0.04 0.05 0.04 0.04 0.04 0.04 0.04 0.04 0.05 0.06 0.06 0.08 0.09 0.10 0.12 0.14 0.16 0.15 0.15 0.14 0.13 0.12 0.10 0.10 0.09 0.10 0.11 0.12 0.13 0.15 0.18 0.19 0.19 0.20 0.22 0.24 0.26 0.27 0.25 0.24 0.24 0.23 0.25
0.07 0.06 0.06 0.06 0.05 0.05 0.05 0.05 0.05 0.06 0.07 0.07 0.09 0.11 0.11 0.12 0.15 0.16 0.16 0.15 0.15 0.14 0.13 0.12 0.11 0.10 0.09 0.11 0.13 0.14 0.16 0.17 0.20 0.19 0.18 0.20 0.22 0.24 0.26 0.28 0.27 0.25 0.24 0.28
0.08 0.09 0.09 0.09 0.09 0.08 0.07 0.07 0.07 0.07 0.07 0.08 0.08 0.09 0.10 0.12 0.14 0.16 0.16 0.15 0.16 0.16 0.15 0.14 0.13 0.12 0.11 0.12 0.13 0.15 0.16 0.17 0.17 0.18 0.18 0.20 0.23 0.23 0.23 0.25 0.26 0.26 0.24 0.28
0.08 0.11 0.12 0.11 0.10 0.10 0.10 0.10 0.10 0.10 0.10 0.10 0.10 0.11 0.12 0.13 0.13 0.15 0.17 0.17 0.16 0.16 0.16 0.15 0.17 0.14 0.12 0.14 0.17 0.16 0.16 0.17 0.18 0.19 0.19 0.23 0.24 0.22 0.21 0.22 0.24 0.25 0.25 0.26
0.12 0.13 0.15 0.15 0.14 0.13 0.13 0.12 0.11 0.11 0.11 0.11 0.12 0.13 0.14 0.15 0.15 0.16 0.17 0.17 0.17 0.18 0.18 0.18 0.18 0.14 0.14 0.15 0.20 0.16 0.16 0.18 0.20 0.21 0.22 0.23 0.23 0.22 0.22 0.23 0.24 0.24 0.25 0.25
0.14 0.15 0.16 0.17 0.17 0.17 0.17 0.16 0.14 0.13 0.12 0.11 0.12 0.13 0.14 0.15 0.15 0.15 0.15 0.15 0.15 0.15 0.15 0.18 0.17 0.15 0.16 0.20 0.24 0.20 0.18 0.19 0.21 0.22 0.23 0.23 0.24 0.25 0.25 0.25 0.26 0.26 0.26 0.26
0.16 0.16 0.16 0.17 0.17 0.17 0.16 0.15 0.14 0.14 0.14 0.14 0.13 0.13 0.12 0.13 0.14 0.14 0.13 0.13 0.14 0.16 0.15 0.13 0.14 0.18 0.23 0.26 0.23 0.20 0.20 0.22 0.23 0.24 0.24 0.23 0.24 0.25 0.26 0.27 0.27 0.27 0.27 0.28
0.15 0.14 0.14 0.15 0.15 0.15 0.15 0.15 0.14 0.15 0.15 0.14 0.14 0.14 0.13 0.13 0.13 0.13 0.14 0.12 0.12 0.13 0.13 0.13 0.16 0.22 0.25 0.24 0.20 0.20 0.22 0.24 0.24 0.24 0.24 0.24 0.25 0.26 0.27 0.28 0.27 0.27 0.27 0.27
0.12 0.12 0.12 0.12 0.13 0.13 0.14 0.15 0.15 0.14 0.14 0.13 0.13 0.12 0.12 0.13 0.13 0.13 0.12 0.13 0.13 0.14 0.13 0.14 0.18 0.20 0.21 0.18 0.17 0.19 0.21 0.22 0.23 0.23 0.24 0.25 0.25 0.26 0.26 0.26 0.25 0.23 0.24 0.24
0.09 0.09 0.09 0.10 0.10 0.10 0.11 0.12 0.12 0.13 0.13 0.12 0.11 0.11 0.11 0.12 0.13 0.12 0.12 0.11 0.12 0.13 0.12 0.13 0.15 0.17 0.17 0.15 0.16 0.18 0.19 0.20 0.22 0.24 0.24 0.24 0.23 0.24 0.24 0.23 0.23 0.22 0.21 0.20
0.07 0.07 0.07 0.08 0.09 0.09 0.10 0.12 0.14 0.13 0.11 0.12 0.11 0.10 0.09 0.09 0.10 0.10 0.11 0.12 0.13 0.13 0.12 0.11 0.13 0.15 0.15 0.15 0.16 0.17 0.18 0.18 0.19 0.19 0.19 0.20 0.21 0.22 0.21 0.21 0.20 0.20 0.19 0.18
0.05 0.05 0.05 0.06 0.07 0.08 0.08 0.10 0.12 0.14 0.13 0.12 0.11 0.10 0.10 0.10 0.10 0.11 0.12 0.12 0.12 0.13 0.12 0.12 0.13 0.15 0.15 0.15 0.16 0.16 0.16 0.16 0.16 0.16 0.17 0.18 0.19 0.19 0.19 0.19 0.19 0.18 0.18 0.17

GEFSNGP_prec_meanprecacc_156.txt.gz
Total_Precipitation_Accumulation
0.52 0.40 0.45 0.45 0.35 0.43 0.71 0.71 0.72 0.45 0.33 0.33 0.30 0.28 0.24 0.26 0.27 0.27 0.28 0.30 0.34 0.37 0.40 0.42 0.41 0.41 0.43 0.49 0.55 0.57 0.58 0.66 0.70 0.71 0.74 0.82 0.86 0.83 0.84 0.85 0.90 0.93 0.93 0.96
0.52 0.33 0.33 0.35 0.29 0.33 0.42 0.45 0.49 0.40 0.36 0.26 0.25 0.23 0.22 0.23 0.22 0.21 0.22 0.24 0.25 0.30 0.36 0.38 0.37 0.36 0.36 0.39 0.44 0.45 0.46 0.52 0.58 0.65 0.73 0.81 0.88 0.87 0.83 0.81 0.85 0.90 0.90 0.94
0.47 0.25 0.33 0.38 0.30 0.35 0.38 0.36 0.42 0.45 0.37 0.23 0.23 0.21 0.22 0.22 0.19 0.17 0.18 0.18 0.19 0.22 0.27 0.29 0.29 0.31 0.33 0.34 0.38 0.41 0.40 0.41 0.47 0.58 0.67 0.71 0.77 0.84 0.84 0.84 0.92 1.00 1.01 1.01
0.47 0.33 0.38 0.25 0.19 0.24 0.29 0.32 0.33 0.32 0.24 0.18 0.19 0.21 0.20 0.20 0.18 0.16 0.15 0.14 0.15 0.18 0.21 0.21 0.22 0.24 0.25 0.26 0.32 0.40 0.43 0.46 0.49 0.53 0.61 0.70 0.75 0.81 0.87 0.89 0.97 1.07 1.11 1.08
0.50 0.39 0.23 0.13 0.10 0.16 0.26 0.29 0.20 0.18 0.15 0.12 0.13 0.14 0.14 0.16 0.15 0.15 0.15 0.14 0.14 0.15 0.17 0.15 0.17 0.21 0.21 0.21 0.26 0.34 0.40 0.45 0.45 0.49 0.57 0.66 0.76 0.84 0.89 0.93 0.98 1.03 1.03 0.98
0.49 0.41 0.25 0.13 0.06 0.07 0.20 0.35 0.15 0.11 0.10 0.10 0.12 0.18 0.16 0.14 0.15 0.12 0.13 0.17 0.17 0.16 0.16 0.15 0.17 0.20 0.23 0.25 0.28 0.35 0.38 0.43 0.44 0.46 0.53 0.61 0.70 0.80 0.87 0.88 0.88 0.87 0.86 0.81
0.39 0.36 0.16 0.08 0.04 0.07 0.29 0.41 0.16 0.12 0.10 0.12 0.14 0.15 0.14 0.11 0.10 0.11 0.13 0.17 0.22 0.24 0.25 0.25 0.27 0.28 0.30 0.31 0.34 0.37 0.39 0.43 0.45 0.47 0.51 0.58 0.63 0.67 0.70 0.70 0.68 0.66 0.64 0.61
0.21 0.28 0.18 0.10 0.11 0.18 0.25 0.17 0.13 0.12 0.13 0.16 0.18 0.16 0.13 0.12 0.10 0.11 0.14 0.17 0.22 0.27 0.29 0.31 0.32 0.34 0.35 0.37 0.39 0.39 0.41 0.44 0.47 0.47 0.47 0.46 0.48 0.51 0.51 0.52 0.51 0.50 0.51 0.50
0.15 0.17 0.14 0.12 0.16 0.18 0.18 0.14 0.12 0.12 0.12 0.15 0.21 0.21 0.18 0.16 0.13 0.11 0.12 0.16 0.19 0.23 0.24 0.25 0.30 0.36 0.39 0.39 0.38 0.36 0.39 0.39 0.39 0.38 0.37 0.37 0.37 0.37 0.40 0.43 0.46 0.48 0.48 0.48
0.13 0.12 0.11 0.12 0.14 0.13 0.13 0.12 0.11 0.11 0.12 0.14 0.16 0.19 0.19 0.18 0.16 0.16 0.15 0.13 0.14 0.16 0.18 0.19 0.21 0.25 0.30 0.31 0.30 0.28 0.30 0.29 0.28 0.27 0.27 0.28 0.28 0.30 0.33 0.36 0.38 0.40 0.43 0.43
0.12 0.09 0.08 0.08 0.07 0.07 0.07 0.07 0.08 0.10 0.11 0.12 0.12 0.15 0.18 0.17 0.15 0.16 0.15 0.14 0.12 0.11 0.12 0.13 0.14 0.16 0.20 0.22 0.22 0.22 0.22 0.21 0.20 0.20 0.24 0.27 0.27 0.28 0.32 0.34 0.39 0.41 0.40 0.40
0.15 0.08 0.09 0.08 0.05 0.04 0.04 0.04 0.05 0.07 0.09 0.10 0.10 0.14 0.15 0.14 0.13 0.13 0.15 0.15 0.12 0.11 0.12 0.12 0.13 0.13 0.14 0.17 0.20 0.21 0.20 0.19 0.20 0.17 0.20 0.26 0.30 0.31 0.35 0.38 0.43 0.47 0.47 0.43
0.11 0.08 0.06 0.05 0.04 0.04 0.03 0.03 0.03 0.04 0.06 0.07 0.07 0.09 0.11 0.12 0.13 0.13 0.12 0.12 0.11 0.11 0.11 0.11 0.12 0.14 0.14 0.15 0.18 0.19 0.20 0.21 0.21 0.21 0.23 0.25 0.27 0.28 0.30 0.32 0.36 0.42 0.44 0.45
0.05 0.04 0.04 0.03 0.04 0.04 0.03 0.03 0.03 0.03 0.04 0.05 0.07 0.08 0.08 0.10 0.12 0.13 0.14 0.14 0.13 0.11 0.11 0.11 0.12 0.11 0.11 0.12 0.15 0.17 0.20 0.22 0.21 0.22 0.25 0.26 0.28 0.29 0.28 0.27 0.27 0.29 0.34 0.40
0.04 0.04 0.04 0.03 0.03 0.03 0.04 0.03 0.03 0.04 0.04 0.05 0.06 0.07 0.09 0.10 0.13 0.15 0.15 0.14 0.14 0.13 0.11 0.10 0.11 0.11 0.11 0.11 0.12 0.15 0.18 0.19 0.19 0.21 0.23 0.25 0.26 0.29 0.29 0.26 0.26 0.25 0.25 0.31
0.05 0.04 0.05 0.04 0.04 0.04 0.04 0.04 0.04 0.05 0.06 0.06 0.08 0.09 0.10 0.12 0.14 0.16 0.15 0.15 0.14 0.13 0.12 0.10 0.10 0.10 0.11 0.12 0.13 0.14 0.16 0.19 0.20 0.19 0.21 0.23 0.24 0.26 0.28 0.25 0.24 0.24 0.24 0.25
0.07 0.06 0.06 0.06 0.05 0.05 0.05 0.05 0.05 0.06 0.07 0.07 0.09 0.11 0.11 0.12 0.15 0.16 0.16 0.15 0.15 0.15 0.14 0.12 0.12 0.11 0.11 0.12 0.14 0.15 0.16 0.17 0.21 0.19 0.19 0.21 0.22 0.24 0.26 0.28 0.27 0.25 0.24 0.28
0.08 0.09 0.09 0.09 0.09 0.08 0.07 0.07 0.07 0.07 0.07 0.08 0.08 0.09 0.10 0.12 0.14 0.16 0.16 0.15 0.16 0.16 0.15 0.14 0.14 0.13 0.12 0.12 0.14 0.15 0.17 0.17 0.18 0.18 0.19 0.21 0.23 0.24 0.24 0.25 0.26 0.26 0.24 0.28
0.08 0.11 0.12 0.11 0.10 0.10 0.10 0.10 0.10 0.10 0.10 0.10 0.10 0.11 0.12 0.13 0.13 0.15 0.17 0.17 0.17 0.17 0.17 0.16 0.18 0.15 0.13 0.14 0.17 0.16 0.17 0.17 0.18 0.19 0.20 0.23 0.25 0.22 0.22 0.23 0.24 0.25 0.25 0.26
0.12 0.13 0.15 0.15 0.14 0.13 0.13 0.12 0.11 0.11 0.11 0.11 0.12 0.13 0.14 0.15 0.15 0.16 0.17 0.17 0.17 0.18 0.19 0.19 0.18 0.14 0.14 0.15 0.20 0.17 0.16 0.18 0.20 0.21 0.23 0.23 0.23 0.23 0.23 0.24 0.24 0.25 0.25 0.25
0.14 0.15 0.16 0.17 0.17 0.17 0.17 0.16 0.14 0.13 0.12 0.11 0.12 0.13 0.14 0.15 0.15 0.15 0.15 0.16 0.15 0.15 0.15 0.18 0.17 0.15 0.17 0.20 0.24 0.20 0.18 0.20 0.21 0.23 0.23 0.24 0.25 0.25 0.26 0.26 0.26 0.26 0.26 0.26
0.16 0.16 0.16 0.17 0.17 0.17 0.16 0.15 0.14 0.14 0.14 0.14 0.13 0.13 0.12 0.13 0.14 0.14 0.13 0.14 0.14 0.16 0.15 0.14 0.14 0.18 0.24 0.27 0.23 0.21 0.21 0.22 0.24 0.24 0.24 0.24 0.25 0.26 0.27 0.27 0.28 0.28 0.28 0.28
0.15 0.14 0.14 0.15 0.15 0.15 0.15 0.15 0.14 0.15 0.15 0.15 0.14 0.14 0.13 0.13 0.13 0.14 0.14 0.13 0.13 0.14 0.13 0.13 0.17 0.22 0.26 0.24 0.20 0.20 0.22 0.24 0.24 0.24 0.24 0.25 0.25 0.27 0.28 0.29 0.28 0.27 0.28 0.27
0.12 0.12 0.12 0.12 0.13 0.13 0.14 0.15 0.15 0.14 0.14 0.13 0.13 0.12 0.13 0.13 0.14 0.13 0.13 0.13 0.14 0.15 0.13 0.14 0.19 0.21 0.21 0.19 0.18 0.19 0.21 0.22 0.23 0.24 0.24 0.26 0.26 0.27 0.27 0.27 0.26 0.24 0.24 0.25
0.10 0.10 0.10 0.11 0.10 0.10 0.11 0.12 0.13 0.13 0.13 0.12 0.11 0.11 0.12 0.13 0.13 0.13 0.12 0.12 0.13 0.14 0.12 0.13 0.16 0.17 0.17 0.16 0.16 0.18 0.19 0.21 0.23 0.24 0.25 0.24 0.24 0.25 0.25 0.24 0.24 0.23 0.22 0.21
0.07 0.07 0.08 0.08 0.09 0.09 0.10 0.12 0.14 0.13 0.12 0.12 0.12 0.11 0.10 0.10 0.10 0.11 0.12 0.12 0.13 0.14 0.12 0.12 0.13 0.15 0.15 0.15 0.16 0.17 0.18 0.19 0.20 0.20 0.19 0.20 0.22 0.23 0.23 0.22 0.21 0.20 0.19 0.18
0.05 0.05 0.05 0.06 0.08 0.08 0.09 0.10 0.13 0.14 0.13 0.12 0.12 0.11 0.10 0.10 0.11 0.12 0.12 0.12 0.13 0.13 0.12 0.12 0.13 0.15 0.15 0.16 0.16 0.16 0.16 0.16 0.17 0.17 0.18 0.19 0.20 0.21 0.20 0.20 0.20 0.19 0.18 0.17

GEFSNGP_prec_meanprecacc_162.txt.gz
Total_Precipitation_Accumulation
0.52 0.40 0.45 0.45 0.35 0.43 0.71 0.71 0.72 0.45 0.33 0.33 0.30 0.28 0.24 0.26 0.27 0.27 0.28 0.30 0.34 0.37 0.40 0.42 0.41 0.41 0.43 0.49 0.56 0.58 0.59 0.66 0.70 0.72 0.75 0.85 0.88 0.85 0.85 0.87 0.93 0.97 0.97 1.03
0.53 0.33 0.33 0.35 0.29 0.33 0.42 0.45 0.49 0.40 0.36 0.26 0.25 0.23 0.22 0.23 0.22 0.21 0.22 0.24 0.25 0.30 0.36 0.38 0.37 0.36 0.36 0.39 0.44 0.46 0.47 0.53 0.59 0.66 0.75 0.84 0.91 0.89 0.86 0.83 0.89 0.95 0.94 0.99
0.47 0.25 0.33 0.38 0.30 0.35 0.38 0.36 0.42 0.45 0.37 0.23 0.23 0.21 0.22 0.22 0.19 0.17 0.18 0.18 0.19 0.22 0.27 0.29 0.29 0.31 0.33 0.34 0.38 0.41 0.40 0.42 0.49 0.61 0.71 0.75 0.81 0.87 0.88 0.88 0.97 1.06 1.06 1.07
0.48 0.33 0.38 0.25 0.19 0.24 0.29 0.32 0.33 0.32 0.24 0.18 0.19 0.21 0.21 0.20 0.18 0.16 0.15 0.14 0.15 0.18 0.21 0.21 0.22 0.24 0.25 0.26 0.32 0.40 0.44 0.46 0.50 0.56 0.65 0.75 0.79 0.85 0.91 0.94 1.01 1.10 1.16 1.17
0.51 0.39 0.23 0.13 0.10 0.16 0.26 0.29 0.20 0.18 0.15 0.12 0.13 0.14 0.14 0.16 0.15 0.15 0.15 0.14 0.14 0.15 0.17 0.15 0.17 0.21 0.21 0.21 0.26 0.34 0.40 0.46 0.46 0.51 0.59 0.70 0.79 0.88 0.93 0.97 1.02 1.08 1.07 1.04
0.51 0.43 0.25 0.13 0.06 0.07 0.20 0.35 0.15 0.11 0.10 0.10 0.12 0.18 0.16 0.14 0.15 0.12 0.13 0.17 0.17 0.16 0.16 0.15 0.17 0.20 0.23 0.25 0.28 0.35 0.39 0.44 0.45 0.48 0.54 0.63 0.73 0.82 0.89 0.91 0.91 0.91 0.89 0.84
0.41 0.37 0.17 0.08 0.04 0.07 0.29 0.41 0.16 0.12 0.10 0.12 0.14 0.16 0.14 0.11 0.10 0.11 0.13 0.17 0.22 0.24 0.25 0.25 0.27 0.28 0.30 0.31 0.34 0.37 0.40 0.44 0.47 0.49 0.53 0.60 0.65 0.68 0.72 0.71 0.69 0.68 0.66 0.63
0.22 0.30 0.18 0.10 0.11 0.18 0.25 0.17 0.13 0.12 0.13 0.16 0.19 0.16 0.13 0.12 0.10 0.11 0.14 0.17 0.22 0.27 0.29 0.31 0.33 0.34 0.35 0.37 0.39 0.39 0.41 0.45 0.48 0.49 0.48 0.47 0.49 0.53 0.53 0.53 0.52 0.51 0.52 0.52
0.16 0.18 0.14 0.12 0.16 0.19 0.18 0.14 0.12 0.12 0.12 0.15 0.21 0.21 0.18 0.16 0.13 0.11 0.12 0.16 0.19 0.23 0.24 0.25 0.30 0.36 0.39 0.39 0.38 0.37 0.39 0.41 0.40 0.40 0.38 0.39 0.38 0.39 0.41 0.44 0.47 0.49 0.49 0.50
0.13 0.13 0.11 0.12 0.14 0.13 0.13 0.12 0.11 0.11 0.12 0.14 0.16 0.19 0.19 0.18 0.16 0.16 0.15 0.13 0.14 0.16 0.18 0.19 0.21 0.25 0.30 0.31 0.30 0.29 0.31 0.30 0.29 0.28 0.29 0.29 0.29 0.30 0.33 0.37 0.39 0.41 0.44 0.44
0.12 0.09 0.08 0.08 0.07 0.07 0.07 0.07 0.08 0.10 0.11 0.12 0.12 0.15 0.18 0.17 0.15 0.16 0.15 0.14 0.12 0.11 0.12 0.13 0.14 0.16 0.20 0.22 0.22 0.22 0.23 0.21 0.21 0.21 0.25 0.28 0.28 0.29 0.32 0.35 0.40 0.42 0.40 0.41
0.15 0.09 0.09 0.08 0.05 0.04 0.04 0.04 0.05 0.07 0.09 0.10 0.10 0.14 0.15 0.14 0.13 0.13 0.15 0.15 0.12 0.11 0.12 0.12 0.13 0.13 0.14 0.17 0.20 0.21 0.20 0.20 0.20 0.18 0.21 0.27 0.30 0.31 0.35 0.38 0.43 0.47 0.47 0.44
0.11 0.08 0.06 0.05 0.04 0.04 0.03 0.03 0.03 0.04 0.06 0.07 0.07 0.09 0.11 0.12 0.13 0.13 0.13 0.12 0.11 0.11 0.11 0.11 0.12 0.14 0.14 0.15 0.18 0.20 0.20 0.22 0.22 0.21 0.23 0.26 0.27 0.29 0.30 0.32 0.36 0.42 0.44 0.45
0.06 0.05 0.04 0.03 0.04 0.04 0.03 0.03 0.03 0.03 0.04 0.05 0.07 0.08 0.08 0.10 0.12 0.13 0.14 0.14 0.13 0.11 0.11 0.11 0.12 0.11 0.11 0.12 0.15 0.17 0.20 0.23 0.21 0.22 0.25 0.26 0.28 0.29 0.28 0.27 0.28 0.29 0.34 0.40
0.04 0.04 0.04 0.03 0.03 0.03 0.04 0.03 0.03 0.04 0.04 0.05 0.06 0.07 0.09 0.10 0.13 0.16 0.15 0.14 0.14 0.13 0.11 0.10 0.11 0.11 0.11 0.11 0.12 0.15 0.18 0.19 0.20 0.21 0.23 0.25 0.27 0.30 0.29 0.27 0.26 0.25 0.25 0.31
0.05 0.04 0.05 0.04 0.04 0.04 0.04 0.04 0.04 0.05 0.06 0.06 0.08 0.09 0.10 0.12 0.14 0.16 0.16 0.15 0.14 0.13 0.12 0.10 0.10 0.10 0.11 0.12 0.13 0.14 0.16 0.19 0.20 0.20 0.21 0.23 0.24 0.26 0.28 0.26 0.25 0.24 0.24 0.25
0.07 0.07 0.06 0.06 0.05 0.05 0.05 0.05 0.05 0.06 0.07 0.07 0.09 0.11 0.12 0.13 0.15 0.16 0.16 0.15 0.15 0.15 0.14 0.12 0.12 0.11 0.11 0.12 0.14 0.15 0.16 0.17 0.21 0.19 0.19 0.21 0.23 0.24 0.27 0.28 0.28 0.25 0.24 0.29
0.08 0.09 0.09 0.09 0.09 0.08 0.07 0.07 0.07 0.07 0.07 0.08 0.08 0.09 0.10 0.12 0.14 0.16 0.16 0.15 0.16 0.16 0.15 0.15 0.14 0.13 0.12 0.12 0.14 0.15 0.17 0.17 0.18 0.18 0.19 0.21 0.24 0.24 0.24 0.25 0.26 0.26 0.24 0.28
0.08 0.11 0.12 0.11 0.10 0.10 0.10 0.10 0.10 0.10 0.10 0.10 0.10 0.11 0.12 0.13 0.13 0.15 0.17 0.17 0.17 0.17 0.18 0.17 0.19 0.15 0.13 0.14 0.17 0.16 0.17 0.17 0.18 0.19 0.20 0.24 0.25 0.22 0.22 0.23 0.25 0.26 0.25 0.26
0.12 0.13 0.15 0.15 0.14 0.13 0.13 0.12 0.11 0.11 0.11 0.11 0.12 0.13 0.14 0.15 0.15 0.16 0.17 0.17 0.17 0.19 0.19 0.19 0.18 0.15 0.14 0.16 0.20 0.17 0.16 0.19 0.20 0.21 0.23 0.23 0.23 0.23 0.23 0.24 0.25 0.25 0.25 0.26
0.14 0.15 0.16 0.17 0.17 0.17 0.17 0.16 0.14 0.13 0.12 0.11 0.12 0.13 0.14 0.15 0.15 0.15 0.15 0.16 0.16 0.16 0.15 0.18 0.17 0.15 0.17 0.20 0.24 0.20 0.19 0.20 0.21 0.23 0.23 0.24 0.25 0.25 0.26 0.26 0.26 0.27 0.26 0.27
0.16 0.16 0.16 0.17 0.17 0.17 0.16 0.15 0.14 0.15 0.14 0.14 0.13 0.13 0.12 0.14 0.14 0.14 0.14 0.14 0.14 0.16 0.15 0.14 0.14 0.18 0.24 0.27 0.24 0.21 0.21 0.23 0.24 0.25 0.25 0.24 0.25 0.26 0.27 0.27 0.28 0.28 0.28 0.28
0.15 0.14 0.14 0.15 0.15 0.16 0.16 0.15 0.15 0.15 0.15 0.15 0.14 0.14 0.14 0.14 0.14 0.14 0.15 0.13 0.13 0.14 0.14 0.14 0.17 0.23 0.26 0.25 0.21 0.20 0.22 0.24 0.25 0.25 0.25 0.25 0.26 0.27 0.28 0.29 0.28 0.28 0.28 0.28
0.13 0.12 0.12 0.12 0.13 0.13 0.14 0.15 0.15 0.15 0.14 0.14 0.14 0.13 0.13 0.14 0.14 0.14 0.14 0.14 0.15 0.15 0.14 0.15 0.19 0.21 0.22 0.19 0.18 0.20 0.21 0.23 0.24 0.24 0.25 0.26 0.27 0.27 0.28 0.27 0.27 0.24 0.24 0.25
0.10 0.10 0.10 0.11 0.11 0.11 0.12 0.13 0.13 0.13 0.13 0.13 0.12 0.12 0.12 0.13 0.14 0.13 0.12 0.12 0.13 0.14 0.13 0.14 0.16 0.18 0.18 0.16 0.17 0.18 0.20 0.21 0.23 0.25 0.25 0.25 0.25 0.25 0.25 0.25 0.24 0.23 0.22 0.21
0.07 0.07 0.08 0.09 0.10 0.10 0.11 0.13 0.15 0.13 0.12 0.12 0.12 0.11 0.10 0.10 0.10 0.11 0.12 0.13 0.13 0.14 0.12 0.12 0.14 0.16 0.16 0.15 0.16 0.18 0.18 0.19 0.20 0.20 0.20 0.21 0.22 0.24 0.23 0.22 0.21 0.21 0.20 0.19
0.05 0.05 0.05 0.06 0.08 0.09 0.09 0.11 0.13 0.15 0.14 0.12 0.12 0.11 0.10 0.11 0.11 0.12 0.13 0.13 0.13 0.13 0.13 0.13 0.14 0.15 0.16 0.16 0.16 0.17 0.17 0.17 0.17 0.18 0.19 0.20 0.21 0.21 0.21 0.21 0.20 0.19 0.19 0.18

GEFSNGP_prec_meanprecacc_168.txt.gz
Total_Precipitation_Accumulation
0.52 0.40 0.45 0.45 0.35 0.43 0.71 0.71 0.72 0.45 0.33 0.33 0.30 0.28 0.24 0.26 0.27 0.27 0.28 0.30 0.34 0.37 0.40 0.42 0.41 0.41 0.43 0.49 0.56 0.58 0.59 0.66 0.70 0.72 0.76 0.86 0.90 0.86 0.86 0.88 0.94 0.97 0.98 1.03
0.53 0.33 0.33 0.35 0.29 0.33 0.42 0.45 0.49 0.40 0.36 0.26 0.25 0.23 0.22 0.24 0.22 0.21 0.22 0.24 0.25 0.30 0.36 0.38 0.37 0.36 0.37 0.39 0.44 0.46 0.47 0.53 0.59 0.66 0.76 0.86 0.93 0.90 0.87 0.84 0.89 0.96 0.95 1.00
0.47 0.25 0.34 0.38 0.30 0.35 0.38 0.36 0.42 0.45 0.37 0.23 0.23 0.21 0.22 0.23 0.19 0.17 0.18 0.18 0.19 0.22 0.27 0.29 0.29 0.31 0.33 0.34 0.38 0.41 0.40 0.42 0.49 0.61 0.72 0.78 0.83 0.88 0.89 0.89 0.98 1.07 1.08 1.08
0.49 0.34 0.39 0.26 0.19 0.24 0.29 0.32 0.33 0.32 0.24 0.18 0.19 0.21 0.21 0.20 0.18 0.16 0.15 0.14 0.15 0.18 0.21 0.21 0.22 0.24 0.25 0.26 0.32 0.40 0.44 0.46 0.50 0.56 0.67 0.77 0.82 0.87 0.92 0.95 1.03 1.12 1.17 1.19
0.54 0.40 0.23 0.13 0.10 0.16 0.26 0.29 0.20 0.18 0.15 0.12 0.13 0.14 0.14 0.16 0.15 0.15 0.15 0.14 0.14 0.15 0.17 0.15 0.17 0.21 0.21 0.21 0.26 0.34 0.40 0.46 0.47 0.52 0.61 0.73 0.83 0.90 0.94 0.98 1.03 1.09 1.09 1.06
0.54 0.45 0.25 0.13 0.06 0.07 0.20 0.35 0.15 0.11 0.10 0.10 0.12 0.18 0.16 0.14 0.15 0.12 0.13 0.17 0.17 0.16 0.16 0.15 0.17 0.20 0.23 0.25 0.28 0.35 0.39 0.44 0.46 0.49 0.56 0.66 0.77 0.86 0.91 0.92 0.92 0.92 0.91 0.87
0.43 0.39 0.17 0.08 0.04 0.07 0.29 0.42 0.17 0.12 0.11 0.12 0.14 0.16 0.14 0.11 0.10 0.11 0.13 0.17 0.22 0.24 0.25 0.26 0.28 0.29 0.30 0.31 0.34 0.37 0.40 0.44 0.47 0.50 0.55 0.63 0.69 0.72 0.74 0.73 0.70 0.69 0.68 0.66
0.24 0.32 0.19 0.10 0.11 0.19 0.25 0.17 0.13 0.12 0.13 0.17 0.19 0.16 0.13 0.12 0.10 0.11 0.14 0.17 0.22 0.27 0.29 0.31 0.33 0.34 0.35 0.37 0.39 0.39 0.41 0.45 0.49 0.51 0.50 0.50 0.53 0.56 0.55 0.54 0.53 0.52 0.53 0.55
0.16 0.19 0.14 0.13 0.17 0.19 0.19 0.15 0.12 0.12 0.12 0.15 0.21 0.21 0.19 0.16 0.13 0.11 0.12 0.16 0.19 0.23 0.24 0.25 0.30 0.36 0.39 0.39 0.38 0.37 0.40 0.41 0.42 0.42 0.41 0.42 0.41 0.42 0.44 0.46 0.47 0.50 0.50 0.51
0.13 0.13 0.11 0.12 0.14 0.13 0.13 0.12 0.12 0.12 0.12 0.14 0.16 0.19 0.19 0.18 0.16 0.16 0.15 0.13 0.14 0.16 0.18 0.19 0.21 0.25 0.30 0.31 0.30 0.29 0.31 0.31 0.30 0.30 0.32 0.32 0.32 0.33 0.36 0.40 0.41 0.42 0.44 0.44
0.13 0.09 0.08 0.08 0.07 0.07 0.08 0.07 0.08 0.10 0.11 0.12 0.12 0.15 0.18 0.17 0.15 0.16 0.15 0.14 0.12 0.11 0.12 0.13 0.14 0.16 0.20 0.22 0.22 0.22 0.23 0.22 0.22 0.23 0.28 0.31 0.30 0.31 0.34 0.37 0.41 0.43 0.41 0.41
0.15 0.09 0.09 0.09 0.06 0.04 0.04 0.04 0.05 0.08 0.10 0.10 0.10 0.14 0.15 0.14 0.13 0.13 0.15 0.15 0.12 0.11 0.12 0.12 0.13 0.13 0.14 0.17 0.20 0.22 0.21 0.21 0.21 0.19 0.22 0.29 0.32 0.33 0.37 0.40 0.45 0.48 0.48 0.45
0.11 0.08 0.07 0.05 0.04 0.04 0.03 0.03 0.03 0.04 0.06 0.07 0.07 0.09 0.11 0.12 0.13 0.13 0.13 0.12 0.11 0.11 0.11 0.12 0.13 0.14 0.14 0.15 0.18 0.20 0.21 0.22 0.23 0.22 0.25 0.27 0.28 0.30 0.31 0.33 0.37 0.43 0.45 0.46
0.06 0.05 0.04 0.03 0.04 0.04 0.03 0.03 0.03 0.03 0.04 0.05 0.07 0.08 0.08 0.10 0.12 0.13 0.14 0.15 0.13 0.11 0.11 0.11 0.12 0.12 0.11 0.12 0.15 0.18 0.21 0.23 0.22 0.23 0.26 0.27 0.29 0.30 0.29 0.27 0.28 0.30 0.34 0.40
0.04 0.04 0.05 0.04 0.03 0.03 0.04 0.03 0.03 0.04 0.04 0.05 0.06 0.07 0.09 0.10 0.13 0.16 0.15 0.14 0.14 0.13 0.11 0.10 0.11 0.11 0.11 0.11 0.13 0.15 0.18 0.20 0.20 0.22 0.24 0.26 0.27 0.30 0.29 0.27 0.26 0.25 0.25 0.31
0.05 0.05 0.05 0.04 0.04 0.04 0.04 0.04 0.04 0.05 0.06 0.06 0.08 0.09 0.10 0.12 0.15 0.16 0.16 0.15 0.14 0.13 0.12 0.11 0.10 0.10 0.11 0.12 0.13 0.15 0.16 0.20 0.20 0.20 0.21 0.23 0.25 0.26 0.28 0.26 0.25 0.24 0.24 0.25
0.07 0.07 0.06 0.06 0.06 0.05 0.05 0.05 0.06 0.06 0.07 0.07 0.09 0.11 0.12 0.13 0.15 0.17 0.16 0.16 0.15 0.15 0.14 0.13 0.12 0.11 0.11 0.12 0.14 0.15 0.16 0.18 0.21 0.20 0.20 0.21 0.23 0.24 0.27 0.28 0.28 0.25 0.25 0.29
0.09 0.10 0.10 0.10 0.09 0.08 0.07 0.07 0.07 0.07 0.08 0.08 0.08 0.09 0.11 0.12 0.14 0.16 0.16 0.15 0.16 0.16 0.15 0.15 0.15 0.14 0.13 0.13 0.14 0.15 0.17 0.17 0.18 0.18 0.19 0.21 0.24 0.24 0.24 0.25 0.27 0.26 0.24 0.28
0.09 0.11 0.12 0.11 0.11 0.10 0.10 0.10 0.10 0.10 0.10 0.10 0.11 0.11 0.12 0.13 0.13 0.15 0.17 0.17 0.17 0.17 0.18 0.17 0.19 0.16 0.13 0.15 0.18 0.17 0.17 0.17 0.18 0.19 0.20 0.24 0.25 0.23 0.22 0.23 0.25 0.26 0.25 0.26
0.12 0.13 0.15 0.15 0.14 0.13 0.13 0.12 0.11 0.11 0.11 0.11 0.12 0.13 0.14 0.15 0.16 0.16 0.17 0.17 0.18 0.19 0.19 0.19 0.18 0.15 0.14 0.16 0.21 0.17 0.17 0.19 0.21 0.22 0.23 0.23 0.24 0.23 0.23 0.24 0.25 0.25 0.25 0.26
0.14 0.15 0.16 0.17 0.17 0.17 0.17 0.16 0.14 0.13 0.12 0.12 0.13 0.14 0.14 0.15 0.15 0.15 0.15 0.16 0.16 0.16 0.16 0.19 0.17 0.15 0.17 0.21 0.25 0.21 0.19 0.20 0.22 0.23 0.24 0.24 0.25 0.26 0.26 0.26 0.26 0.27 0.27 0.27
0.16 0.16 0.16 0.17 0.17 0.17 0.17 0.15 0.15 0.15 0.15 0.14 0.14 0.13 0.13 0.14 0.15 0.14 0.14 0.14 0.15 0.17 0.16 0.14 0.15 0.19 0.24 0.27 0.24 0.21 0.21 0.23 0.24 0.25 0.25 0.24 0.25 0.26 0.27 0.27 0.28 0.28 0.28 0.29
0.15 0.14 0.14 0.15 0.15 0.16 0.16 0.15 0.15 0.16 0.16 0.15 0.15 0.15 0.14 0.14 0.14 0.15 0.15 0.14 0.14 0.15 0.14 0.14 0.18 0.23 0.27 0.25 0.21 0.21 0.23 0.25 0.25 0.25 0.25 0.25 0.26 0.27 0.29 0.29 0.29 0.28 0.28 0.28
0.13 0.12 0.12 0.13 0.13 0.14 0.15 0.16 0.16 0.15 0.15 0.14 0.14 0.14 0.14 0.15 0.15 0.14 0.14 0.15 0.15 0.16 0.14 0.15 0.19 0.22 0.22 0.19 0.19 0.20 0.22 0.23 0.24 0.25 0.25 0.26 0.27 0.28 0.28 0.28 0.27 0.25 0.25 0.25
0.10 0.10 0.11 0.12 0.12 0.11 0.12 0.14 0.14 0.14 0.14 0.13 0.12 0.12 0.13 0.13 0.14 0.13 0.13 0.12 0.13 0.14 0.13 0.14 0.17 0.18 0.18 0.16 0.17 0.19 0.20 0.21 0.24 0.25 0.25 0.25 0.25 0.26 0.25 0.25 0.25 0.24 0.23 0.21
0.08 0.08 0.08 0.09 0.11 0.11 0.12 0.14 0.16 0.14 0.13 0.13 0.13 0.11 0.10 0.10 0.11 0.11 0.12 0.13 0.14 0.14 0.13 0.12 0.14 0.16 0.16 0.16 0.17 0.18 0.19 0.19 0.21 0.20 0.20 0.21 0.23 0.24 0.24 0.23 0.22 0.21 0.21 0.19
0.05 0.05 0.06 0.07 0.09 0.09 0.10 0.12 0.14 0.16 0.14 0.13 0.13 0.11 0.11 0.11 0.12 0.12 0.13 0.13 0.13 0.14 0.13 0.13 0.14 0.15 0.16 0.16 0.17 0.17 0.17 0.17 0.18 0.18 0.19 0.20 0.21 0.22 0.21 0.21 0.21 0.20 0.20 0.19